Time,TemperatureF,DewpointF,PressureIn,WindDirection,WindDirectionDegrees,WindSpeedMPH,WindSpeedGustMPH,Humidity,HourlyPrecipIn,Conditions,Clouds,dailyrainin,SoftwareType,DateUTC
2013-01-17 00:04:00,32.2,7.6,30.35,WSW,243,6.0,7.0,35,0.00,,,0.00,Wunderground v.1.15,2013-01-17 07:04:00,
2013-01-17 00:10:00,32.8,8.1,30.35,WSW,246,0.0,4.0,35,0.00,,,0.00,Wunderground v.1.15,2013-01-17 07:10:00,
2013-01-17 00:15:00,32.8,8.1,30.35,WSW,247,8.0,8.0,35,0.00,,,0.00,Wunderground v.1.15,2013-01-17 07:15:00,
2013-01-17 00:20:00,32.7,8.0,30.36,WSW,241,6.0,6.0,35,0.00,,,0.00,Wunderground v.1.15,2013-01-17 07:20:00,
2013-01-17 00:25:00,32.7,8.0,30.36,WSW,243,2.0,6.0,35,0.00,,,0.00,Wunderground v.1.15,2013-01-17 07:25:00,
2013-01-17 00:30:00,32.5,7.8,30.36,WSW,243,2.0,3.0,35,0.00,,,0.00,Wunderground v.1.15,2013-01-17 07:30:00,
2013-01-17 00:35:00,32.1,8.1,30.37,WSW,243,0.0,4.0,36,0.00,,,0.00,Wunderground v.1.15,2013-01-17 07:35:00,
2013-01-17 00:40:00,31.5,8.2,30.37,WSW,243,1.0,1.0,37,0.00,,,0.00,Wunderground v.1.15,2013-01-17 07:40:00,
2013-01-17 00:45:00,30.6,8.0,30.37,WSW,243,0.0,4.0,38,0.00,,,0.00,Wunderground v.1.15,2013-01-17 07:45:00,
2013-01-17 00:50:00,30.1,8.1,30.39,WSW,243,0.0,1.0,39,0.00,,,0.00,Wunderground v.1.15,2013-01-17 07:50:00,
2013-01-17 00:55:00,29.7,8.3,30.39,WSW,243,1.0,1.0,40,0.00,,,0.00,Wunderground v.1.15,2013-01-17 07:55:00,
2013-01-17 01:01:00,30.0,8.0,30.39,WSW,243,2.0,2.0,39,0.00,,,0.00,Wunderground v.1.15,2013-01-17 08:01:00,
2013-01-17 01:06:00,30.1,8.1,30.39,WSW,243,0.0,2.0,39,0.00,,,0.00,Wunderground v.1.15,2013-01-17 08:06:00,
2013-01-17 01:11:00,30.0,8.0,30.39,WSW,243,4.0,4.0,39,0.00,,,0.00,Wunderground v.1.15,2013-01-17 08:11:00,
2013-01-17 01:16:00,30.0,8.0,30.39,WSW,243,2.0,4.0,39,0.00,,,0.00,Wunderground v.1.15,2013-01-17 08:16:00,
2013-01-17 01:22:00,29.7,7.7,30.38,WSW,243,0.0,1.0,39,0.00,,,0.00,Wunderground v.1.15,2013-01-17 08:22:00,
2013-01-17 01:27:00,29.5,7.5,30.38,WSW,243,0.0,2.0,39,0.00,,,0.00,Wunderground v.1.15,2013-01-17 08:27:00,
2013-01-17 01:32:00,29.5,7.5,30.39,WSW,243,0.0,2.0,39,0.00,,,0.00,Wunderground v.1.15,2013-01-17 08:32:00,
2013-01-17 01:37:00,29.4,7.5,30.39,WSW,243,2.0,2.0,39,0.00,,,0.00,Wunderground v.1.15,2013-01-17 08:37:00,
2013-01-17 01:42:00,29.1,7.7,30.39,WSW,243,2.0,4.0,40,0.00,,,0.00,Wunderground v.1.15,2013-01-17 08:42:00,
2013-01-17 01:47:00,29.1,7.7,30.39,WSW,243,0.0,4.0,40,0.00,,,0.00,Wunderground v.1.15,2013-01-17 08:47:00,
2013-01-17 01:52:00,29.1,7.7,30.39,WSW,243,0.0,2.0,40,0.00,,,0.00,Wunderground v.1.15,2013-01-17 08:52:00,
2013-01-17 01:58:00,29.0,7.7,30.39,WSW,243,1.0,2.0,40,0.00,,,0.00,Wunderground v.1.15,2013-01-17 08:58:00,
2013-01-17 02:03:00,29.0,7.7,30.39,WSW,243,0.0,1.0,40,0.00,,,0.00,Wunderground v.1.15,2013-01-17 09:03:00,
2013-01-17 02:08:00,29.1,7.2,30.39,WSW,243,1.0,2.0,39,0.00,,,0.00,Wunderground v.1.15,2013-01-17 09:08:00,
2013-01-17 02:13:00,29.3,7.4,30.39,WSW,243,1.0,6.0,39,0.00,,,0.00,Wunderground v.1.15,2013-01-17 09:13:00,
2013-01-17 02:18:00,29.4,7.5,30.39,WSW,243,0.0,6.0,39,0.00,,,0.00,Wunderground v.1.15,2013-01-17 09:18:00,
2013-01-17 02:24:00,29.7,7.7,30.39,WSW,244,6.0,6.0,39,0.00,,,0.00,Wunderground v.1.15,2013-01-17 09:24:00,
2013-01-17 02:29:00,29.5,7.5,30.39,WSW,244,2.0,6.0,39,0.00,,,0.00,Wunderground v.1.15,2013-01-17 09:29:00,
2013-01-17 02:34:00,29.7,7.7,30.40,WSW,244,4.0,4.0,39,0.00,,,0.00,Wunderground v.1.15,2013-01-17 09:34:00,
2013-01-17 02:39:00,29.7,7.7,30.40,WSW,244,0.0,4.0,39,0.00,,,0.00,Wunderground v.1.15,2013-01-17 09:39:00,
2013-01-17 02:44:00,29.4,7.5,30.40,WSW,244,0.0,1.0,39,0.00,,,0.00,Wunderground v.1.15,2013-01-17 09:44:00,
2013-01-17 02:49:00,29.1,7.2,30.40,WSW,244,0.0,1.0,39,0.00,,,0.00,Wunderground v.1.15,2013-01-17 09:49:00,
2013-01-17 02:54:00,28.4,7.7,30.40,WSW,244,0.0,0.0,41,0.00,,,0.00,Wunderground v.1.15,2013-01-17 09:54:00,
2013-01-17 03:00:00,27.8,7.1,30.40,WSW,244,0.0,0.0,41,0.00,,,0.00,Wunderground v.1.15,2013-01-17 10:00:00,
2013-01-17 03:05:00,26.9,7.4,30.42,WSW,244,0.0,0.0,43,0.00,,,0.00,Wunderground v.1.15,2013-01-17 10:05:00,
2013-01-17 03:10:00,26.3,7.8,30.42,WSW,244,0.0,0.0,45,0.00,,,0.00,Wunderground v.1.15,2013-01-17 10:10:00,
2013-01-17 03:15:00,25.6,7.2,30.42,WSW,244,0.0,0.0,45,0.00,,,0.00,Wunderground v.1.15,2013-01-17 10:15:00,
2013-01-17 03:20:00,25.3,7.9,30.44,WSW,244,0.0,0.0,47,0.00,,,0.00,Wunderground v.1.15,2013-01-17 10:20:00,
2013-01-17 03:25:00,25.0,7.6,30.44,WSW,244,0.0,0.0,47,0.00,,,0.00,Wunderground v.1.15,2013-01-17 10:25:00,
2013-01-17 03:31:00,24.5,7.1,30.44,WSW,244,0.0,0.0,47,0.00,,,0.00,Wunderground v.1.15,2013-01-17 10:31:00,
2013-01-17 03:36:00,24.4,7.5,30.43,WSW,244,0.0,0.0,48,0.00,,,0.00,Wunderground v.1.15,2013-01-17 10:36:00,
2013-01-17 03:41:00,24.2,7.3,30.43,WSW,244,0.0,0.0,48,0.00,,,0.00,Wunderground v.1.15,2013-01-17 10:41:00,
2013-01-17 03:46:00,24.1,7.7,30.44,WSW,244,0.0,0.0,49,0.00,,,0.00,Wunderground v.1.15,2013-01-17 10:46:00,
2013-01-17 03:51:00,24.1,7.7,30.44,WSW,244,0.0,0.0,49,0.00,,,0.00,Wunderground v.1.15,2013-01-17 10:51:00,
2013-01-17 03:57:00,23.9,7.5,30.44,WSW,244,0.0,0.0,49,0.00,,,0.00,Wunderground v.1.15,2013-01-17 10:57:00,
2013-01-17 04:02:00,23.9,7.5,30.44,WSW,244,0.0,0.0,49,0.00,,,0.00,Wunderground v.1.15,2013-01-17 11:02:00,
2013-01-17 04:07:00,23.8,7.4,30.44,WSW,244,0.0,0.0,49,0.00,,,0.00,Wunderground v.1.15,2013-01-17 11:07:00,
2013-01-17 04:12:00,23.8,7.8,30.44,WSW,244,0.0,0.0,50,0.00,,,0.00,Wunderground v.1.15,2013-01-17 11:12:00,
2013-01-17 04:17:00,23.5,7.6,30.46,WSW,244,0.0,0.0,50,0.00,,,0.00,Wunderground v.1.15,2013-01-17 11:17:00,
2013-01-17 04:22:00,23.2,7.7,30.46,WSW,244,0.0,0.0,51,0.00,,,0.00,Wunderground v.1.15,2013-01-17 11:22:00,
2013-01-17 04:27:00,22.7,7.3,30.46,WSW,244,0.0,0.0,51,0.00,,,0.00,Wunderground v.1.15,2013-01-17 11:27:00,
2013-01-17 04:33:00,22.4,7.0,30.47,WSW,244,0.0,0.0,51,0.00,,,0.00,Wunderground v.1.15,2013-01-17 11:33:00,
2013-01-17 04:38:00,21.9,6.5,30.47,WSW,244,0.0,0.0,51,0.00,,,0.00,Wunderground v.1.15,2013-01-17 11:38:00,
2013-01-17 04:43:00,21.6,6.2,30.47,WSW,244,0.0,0.0,51,0.00,,,0.00,Wunderground v.1.15,2013-01-17 11:43:00,
2013-01-17 04:48:00,21.3,7.6,30.48,WSW,244,0.0,0.0,55,0.00,,,0.00,Wunderground v.1.15,2013-01-17 11:48:00,
2013-01-17 04:53:00,20.8,7.2,30.48,WSW,244,0.0,0.0,55,0.00,,,0.00,Wunderground v.1.15,2013-01-17 11:53:00,
2013-01-17 04:58:00,20.3,6.7,30.48,WSW,244,0.0,0.0,55,0.00,,,0.00,Wunderground v.1.15,2013-01-17 11:58:00,
2013-01-17 05:04:00,20.2,7.4,30.49,WSW,244,0.0,0.0,57,0.00,,,0.00,Wunderground v.1.15,2013-01-17 12:04:00,
2013-01-17 05:09:00,20.0,7.2,30.49,WSW,244,0.0,0.0,57,0.00,,,0.00,Wunderground v.1.15,2013-01-17 12:09:00,
2013-01-17 05:14:00,19.7,6.5,30.49,WSW,244,0.0,0.0,56,0.00,,,0.00,Wunderground v.1.15,2013-01-17 12:14:00,
2013-01-17 05:19:00,19.4,6.2,30.50,WSW,244,0.0,0.0,56,0.00,,,0.00,Wunderground v.1.15,2013-01-17 12:19:00,
2013-01-17 05:24:00,19.2,6.1,30.50,WSW,244,0.0,0.0,56,0.00,,,0.00,Wunderground v.1.15,2013-01-17 12:24:00,
2013-01-17 05:29:00,19.4,7.0,30.50,WSW,244,0.0,0.0,58,0.00,,,0.00,Wunderground v.1.15,2013-01-17 12:29:00,
2013-01-17 05:34:00,19.4,7.4,30.50,WSW,244,0.0,0.0,59,0.00,,,0.00,Wunderground v.1.15,2013-01-17 12:34:00,
2013-01-17 05:39:00,19.4,7.4,30.50,WSW,244,0.0,0.0,59,0.00,,,0.00,Wunderground v.1.15,2013-01-17 12:39:00,
2013-01-17 05:45:00,19.4,7.0,30.50,WSW,244,0.0,0.0,58,0.00,,,0.00,Wunderground v.1.15,2013-01-17 12:45:00,
2013-01-17 05:50:00,18.8,6.1,30.50,WSW,244,0.0,0.0,57,0.00,,,0.00,Wunderground v.1.15,2013-01-17 12:50:00,
2013-01-17 05:55:00,18.8,6.4,30.50,WSW,244,0.0,0.0,58,0.00,,,0.00,Wunderground v.1.15,2013-01-17 12:55:00,
2013-01-17 06:00:00,18.8,6.1,30.50,WSW,244,0.0,0.0,57,0.00,,,0.00,Wunderground v.1.15,2013-01-17 13:00:00,
2013-01-17 06:05:00,18.8,6.1,30.50,WSW,244,0.0,0.0,57,0.00,,,0.00,Wunderground v.1.15,2013-01-17 13:05:00,
2013-01-17 06:10:00,18.8,6.1,30.50,WSW,244,0.0,0.0,57,0.00,,,0.00,Wunderground v.1.15,2013-01-17 13:10:00,
2013-01-17 06:15:00,18.6,5.9,30.50,WSW,244,0.0,0.0,57,0.00,,,0.00,Wunderground v.1.15,2013-01-17 13:15:00,
2013-01-17 06:21:00,18.1,5.4,30.51,WSW,244,0.0,0.0,57,0.00,,,0.00,Wunderground v.1.15,2013-01-17 13:21:00,
2013-01-17 06:26:00,17.7,5.4,30.51,WSW,244,0.0,0.0,58,0.00,,,0.00,Wunderground v.1.15,2013-01-17 13:26:00,
2013-01-17 06:31:00,17.5,5.6,30.51,WSW,244,0.0,0.0,59,0.00,,,0.00,Wunderground v.1.15,2013-01-17 13:31:00,
2013-01-17 06:36:00,17.8,6.2,30.51,WSW,244,0.0,0.0,60,0.00,,,0.00,Wunderground v.1.15,2013-01-17 13:36:00,
2013-01-17 06:41:00,18.1,6.2,30.51,WSW,244,0.0,0.0,59,0.00,,,0.00,Wunderground v.1.15,2013-01-17 13:41:00,
2013-01-17 06:46:00,18.1,5.8,30.51,WSW,244,2.0,2.0,58,0.00,,,0.00,Wunderground v.1.15,2013-01-17 13:46:00,
2013-01-17 06:51:00,18.1,5.8,30.51,WSW,244,0.0,0.0,58,0.00,,,0.00,Wunderground v.1.15,2013-01-17 13:51:00,
2013-01-17 06:56:00,18.0,5.7,30.51,WSW,244,0.0,0.0,58,0.00,,,0.00,Wunderground v.1.15,2013-01-17 13:56:00,
2013-01-17 07:02:00,18.1,5.8,30.51,WSW,244,0.0,0.0,58,0.00,,,0.00,Wunderground v.1.15,2013-01-17 14:02:00,
2013-01-17 07:07:00,18.4,6.1,30.51,WSW,244,0.0,0.0,58,0.00,,,0.00,Wunderground v.1.15,2013-01-17 14:07:00,
2013-01-17 07:12:00,18.4,6.1,30.51,WSW,244,0.0,0.0,58,0.00,,,0.00,Wunderground v.1.15,2013-01-17 14:12:00,
2013-01-17 07:17:00,18.3,6.0,30.52,WSW,244,0.0,0.0,58,0.00,,,0.00,Wunderground v.1.15,2013-01-17 14:17:00,
2013-01-17 07:23:00,18.1,6.2,30.52,WSW,244,0.0,0.0,59,0.00,,,0.00,Wunderground v.1.15,2013-01-17 14:23:00,
2013-01-17 07:28:00,17.8,5.9,30.52,WSW,244,0.0,0.0,59,0.00,,,0.00,Wunderground v.1.15,2013-01-17 14:28:00,
2013-01-17 07:33:00,17.8,5.9,30.52,WSW,244,0.0,0.0,59,0.00,,,0.00,Wunderground v.1.15,2013-01-17 14:33:00,
2013-01-17 07:38:00,17.8,5.9,30.52,WSW,244,0.0,0.0,59,0.00,,,0.00,Wunderground v.1.15,2013-01-17 14:38:00,
2013-01-17 07:43:00,18.0,6.4,30.52,WSW,244,0.0,0.0,60,0.00,,,0.00,Wunderground v.1.15,2013-01-17 14:43:00,
2013-01-17 07:48:00,18.3,6.4,30.52,WSW,244,0.0,0.0,59,0.00,,,0.00,Wunderground v.1.15,2013-01-17 14:48:00,
2013-01-17 07:53:00,18.3,6.4,30.52,WSW,244,0.0,1.0,59,0.00,,,0.00,Wunderground v.1.15,2013-01-17 14:53:00,
2013-01-17 07:59:00,18.6,6.6,30.52,WSW,244,0.0,1.0,59,0.00,,,0.00,Wunderground v.1.15,2013-01-17 14:59:00,
2013-01-17 08:04:00,19.1,7.1,30.52,WSW,244,0.0,0.0,59,0.00,,,0.00,Wunderground v.1.15,2013-01-17 15:04:00,
2013-01-17 08:09:00,19.7,7.3,30.52,WSW,244,0.0,0.0,58,0.00,,,0.00,Wunderground v.1.15,2013-01-17 15:09:00,
2013-01-17 08:14:00,20.0,7.2,30.52,WSW,244,0.0,0.0,57,0.00,,,0.00,Wunderground v.1.15,2013-01-17 15:14:00,
2013-01-17 08:19:00,20.3,7.5,30.52,WSW,244,0.0,0.0,57,0.00,,,0.00,Wunderground v.1.15,2013-01-17 15:19:00,
2013-01-17 08:24:00,20.8,7.6,30.52,WSW,244,0.0,0.0,56,0.00,,,0.00,Wunderground v.1.15,2013-01-17 15:24:00,
2013-01-17 08:29:00,21.1,7.8,30.52,WSW,244,0.0,0.0,56,0.00,,,0.00,Wunderground v.1.15,2013-01-17 15:29:00,
2013-01-17 08:34:00,21.8,8.1,30.52,WSW,244,0.0,0.0,55,0.00,,,0.00,Wunderground v.1.15,2013-01-17 15:34:00,
2013-01-17 08:39:00,22.5,8.7,30.52,WSW,244,0.0,0.0,55,0.00,,,0.00,Wunderground v.1.15,2013-01-17 15:39:00,
2013-01-17 08:44:00,23.5,9.7,30.52,WSW,244,0.0,0.0,55,0.00,,,0.00,Wunderground v.1.15,2013-01-17 15:44:00,
2013-01-17 08:49:00,24.2,8.7,30.50,WSW,244,0.0,0.0,51,0.00,,,0.00,Wunderground v.1.15,2013-01-17 15:49:00,
2013-01-17 08:55:00,24.5,8.5,30.50,WSW,244,0.0,1.0,50,0.00,,,0.00,Wunderground v.1.15,2013-01-17 15:55:00,
2013-01-17 09:00:00,24.8,8.8,30.50,WSW,244,0.0,0.0,50,0.00,,,0.00,Wunderground v.1.15,2013-01-17 16:00:00,
2013-01-17 09:05:00,25.6,8.6,30.49,WSW,244,0.0,0.0,48,0.00,,,0.00,Wunderground v.1.15,2013-01-17 16:05:00,
2013-01-17 09:10:00,26.3,8.8,30.49,WSW,244,0.0,0.0,47,0.00,,,0.00,Wunderground v.1.15,2013-01-17 16:10:00,
2013-01-17 09:15:00,26.7,9.1,30.49,WSW,244,0.0,0.0,47,0.00,,,0.00,Wunderground v.1.15,2013-01-17 16:15:00,
2013-01-17 09:20:00,27.3,9.2,30.48,WSW,244,0.0,0.0,46,0.00,,,0.00,Wunderground v.1.15,2013-01-17 16:20:00,
2013-01-17 09:25:00,27.9,9.8,30.48,WSW,244,0.0,1.0,46,0.00,,,0.00,Wunderground v.1.15,2013-01-17 16:25:00,
2013-01-17 09:30:00,28.4,9.2,30.48,WSW,253,0.0,1.0,44,0.00,,,0.00,Wunderground v.1.15,2013-01-17 16:30:00,
2013-01-17 09:35:00,29.7,8.8,30.48,WSW,253,0.0,4.0,41,0.00,,,0.00,Wunderground v.1.15,2013-01-17 16:35:00,
2013-01-17 09:41:00,30.9,8.8,30.48,WSW,253,0.0,1.0,39,0.00,,,0.00,Wunderground v.1.15,2013-01-17 16:41:00,
2013-01-17 09:46:00,31.6,10.0,30.48,WSW,253,0.0,1.0,40,0.00,,,0.00,Wunderground v.1.15,2013-01-17 16:46:00,
2013-01-17 09:51:00,31.6,10.0,30.45,WSW,253,0.0,1.0,40,0.00,,,0.00,Wunderground v.1.15,2013-01-17 16:51:00,
2013-01-17 09:56:00,31.8,10.2,30.45,WSW,253,0.0,1.0,40,0.00,,,0.00,Wunderground v.1.15,2013-01-17 16:56:00,
2013-01-17 10:01:00,32.7,10.4,30.45,WSW,253,0.0,0.0,39,0.00,,,0.00,Wunderground v.1.15,2013-01-17 17:01:00,
2013-01-17 10:06:00,34.0,10.4,30.44,WSW,253,0.0,0.0,37,0.00,,,0.00,Wunderground v.1.15,2013-01-17 17:06:00,
2013-01-17 10:11:00,35.9,10.2,30.44,WSW,253,0.0,0.0,34,0.00,,,0.00,Wunderground v.1.15,2013-01-17 17:11:00,
2013-01-17 10:16:00,36.3,10.6,30.42,WSW,253,0.0,2.0,34,0.00,,,0.00,Wunderground v.1.15,2013-01-17 17:16:00,
2013-01-17 10:21:00,36.5,10.1,30.42,WSW,253,0.0,0.0,33,0.00,,,0.00,Wunderground v.1.15,2013-01-17 17:21:00,
2013-01-17 10:27:00,37.8,6.8,30.42,West,263,0.0,8.0,27,0.00,,,0.00,Wunderground v.1.15,2013-01-17 17:27:00,
2013-01-17 10:32:00,39.2,8.0,30.39,West,260,0.0,4.0,27,0.00,,,0.00,Wunderground v.1.15,2013-01-17 17:32:00,
2013-01-17 10:37:00,39.6,8.3,30.39,West,260,0.0,4.0,27,0.00,,,0.00,Wunderground v.1.15,2013-01-17 17:37:00,
2013-01-17 10:42:00,39.5,8.2,30.39,West,260,0.0,1.0,27,0.00,,,0.00,Wunderground v.1.15,2013-01-17 17:42:00,
2013-01-17 10:47:00,39.8,8.5,30.38,West,260,0.0,1.0,27,0.00,,,0.00,Wunderground v.1.15,2013-01-17 17:47:00,
2013-01-17 10:52:00,40.5,9.9,30.38,West,260,2.0,4.0,28,0.00,,,0.00,Wunderground v.1.15,2013-01-17 17:52:00,
2013-01-17 10:57:00,40.6,10.0,30.38,West,261,2.0,4.0,28,0.00,,,0.00,Wunderground v.1.15,2013-01-17 17:57:00,
2013-01-17 11:02:00,40.8,10.2,30.36,West,260,0.0,2.0,28,0.00,,,0.00,Wunderground v.1.15,2013-01-17 18:02:00,
2013-01-17 11:07:00,40.8,10.2,30.36,West,260,0.0,2.0,28,0.00,,,0.00,Wunderground v.1.15,2013-01-17 18:07:00,
2013-01-17 11:12:00,40.5,9.9,30.36,WSW,254,1.0,7.0,28,0.00,,,0.00,Wunderground v.1.15,2013-01-17 18:12:00,
2013-01-17 11:17:00,41.3,7.2,30.38,WNW,291,9.0,15.0,24,0.00,,,0.00,Wunderground v.1.15,2013-01-17 18:17:00,
2013-01-17 11:22:00,41.8,7.6,30.38,WSW,251,0.0,16.0,24,0.00,,,0.00,Wunderground v.1.15,2013-01-17 18:22:00,
2013-01-17 11:27:00,41.8,6.6,30.38,WSW,251,17.0,17.0,23,0.00,,,0.00,Wunderground v.1.15,2013-01-17 18:27:00,
2013-01-17 11:32:00,41.9,6.7,30.36,WSW,243,6.0,16.0,23,0.00,,,0.00,Wunderground v.1.15,2013-01-17 18:32:00,
2013-01-17 11:38:00,41.5,7.3,30.36,WSW,258,10.0,16.0,24,0.00,,,0.00,Wunderground v.1.15,2013-01-17 18:38:00,
2013-01-17 11:43:00,41.6,6.5,30.36,West,263,10.0,14.0,23,0.00,,,0.00,Wunderground v.1.15,2013-01-17 18:43:00,
2013-01-17 11:48:00,42.1,6.9,30.35,West,264,9.0,14.0,23,0.00,,,0.00,Wunderground v.1.15,2013-01-17 18:48:00,
2013-01-17 11:53:00,42.1,6.9,30.35,SW,230,1.0,13.0,23,0.00,,,0.00,Wunderground v.1.15,2013-01-17 18:53:00,
2013-01-17 11:59:00,42.5,6.3,30.35,WNW,288,11.0,13.0,22,0.00,,,0.00,Wunderground v.1.15,2013-01-17 18:59:00,
2013-01-17 12:04:00,42.2,6.0,30.33,West,268,6.0,14.0,22,0.00,,,0.00,Wunderground v.1.15,2013-01-17 19:04:00,
2013-01-17 12:09:00,42.8,6.5,30.33,NW,304,15.0,15.0,22,0.00,,,0.00,Wunderground v.1.15,2013-01-17 19:09:00,
2013-01-17 12:14:00,42.6,6.3,30.33,WSW,247,4.0,20.0,22,0.00,,,0.00,Wunderground v.1.15,2013-01-17 19:14:00,
2013-01-17 12:19:00,42.6,6.3,30.34,West,268,7.0,20.0,22,0.00,,,0.00,Wunderground v.1.15,2013-01-17 19:19:00,
2013-01-17 12:24:00,42.8,6.5,30.34,WSW,256,8.0,14.0,22,0.00,,,0.00,Wunderground v.1.15,2013-01-17 19:24:00,
2013-01-17 12:29:00,43.1,6.8,30.34,WSW,247,10.0,16.0,22,0.00,,,0.00,Wunderground v.1.15,2013-01-17 19:29:00,
2013-01-17 12:34:00,42.9,6.6,30.32,SW,230,6.0,18.0,22,0.00,,,0.00,Wunderground v.1.15,2013-01-17 19:34:00,
2013-01-17 12:39:00,43.1,6.8,30.32,WSW,237,10.0,18.0,22,0.00,,,0.00,Wunderground v.1.15,2013-01-17 19:39:00,
2013-01-17 12:44:00,43.8,6.3,30.32,WSW,256,9.0,15.0,21,0.00,,,0.00,Wunderground v.1.15,2013-01-17 19:44:00,
2013-01-17 12:49:00,44.6,7.0,30.30,West,268,8.0,15.0,21,0.00,,,0.00,Wunderground v.1.15,2013-01-17 19:49:00,
2013-01-17 12:55:00,44.5,6.9,30.30,West,260,7.0,16.0,21,0.00,,,0.00,Wunderground v.1.15,2013-01-17 19:55:00,
2013-01-17 13:00:00,44.3,6.7,30.30,WSW,248,2.0,9.0,21,0.00,,,0.00,Wunderground v.1.15,2013-01-17 20:00:00,
2013-01-17 13:05:00,44.6,7.0,30.29,SW,234,10.0,13.0,21,0.00,,,0.00,Wunderground v.1.15,2013-01-17 20:05:00,
2013-01-17 13:10:00,44.9,7.3,30.29,WSW,257,14.0,14.0,21,0.00,,,0.00,Wunderground v.1.15,2013-01-17 20:10:00,
2013-01-17 13:15:00,44.9,6.2,30.29,WSW,237,7.0,14.0,20,0.00,,,0.00,Wunderground v.1.15,2013-01-17 20:15:00,
2013-01-17 13:20:00,44.9,6.2,30.27,West,271,7.0,8.0,20,0.00,,,0.00,Wunderground v.1.15,2013-01-17 20:20:00,
2013-01-17 13:25:00,45.5,6.7,30.27,NW,308,14.0,14.0,20,0.00,,,0.00,Wunderground v.1.15,2013-01-17 20:25:00,
2013-01-17 13:30:00,45.8,6.9,30.27,West,260,4.0,7.0,20,0.00,,,0.00,Wunderground v.1.15,2013-01-17 20:30:00,
2013-01-17 13:36:00,45.8,6.9,30.27,West,260,1.0,16.0,20,0.00,,,0.00,Wunderground v.1.15,2013-01-17 20:36:00,
2013-01-17 13:41:00,45.8,8.0,30.27,WNW,282,8.0,9.0,21,0.00,,,0.00,Wunderground v.1.15,2013-01-17 20:41:00,
2013-01-17 13:46:00,46.0,7.1,30.27,WNW,292,7.0,13.0,20,0.00,,,0.00,Wunderground v.1.15,2013-01-17 20:46:00,
2013-01-17 13:51:00,45.8,6.9,30.26,WSW,240,7.0,11.0,20,0.00,,,0.00,Wunderground v.1.15,2013-01-17 20:51:00,
2013-01-17 13:57:00,46.0,7.1,30.26,West,272,7.0,11.0,20,0.00,,,0.00,Wunderground v.1.15,2013-01-17 20:57:00,
2013-01-17 14:02:00,46.1,7.2,30.25,West,275,6.0,11.0,20,0.00,,,0.00,Wunderground v.1.15,2013-01-17 21:02:00,
2013-01-17 14:07:00,45.8,6.9,30.25,SSW,213,4.0,13.0,20,0.00,,,0.00,Wunderground v.1.15,2013-01-17 21:07:00,
2013-01-17 14:12:00,45.8,6.9,30.25,WSW,241,14.0,14.0,20,0.00,,,0.00,Wunderground v.1.15,2013-01-17 21:12:00,
2013-01-17 14:17:00,45.2,7.5,30.26,WSW,243,6.0,14.0,21,0.00,,,0.00,Wunderground v.1.15,2013-01-17 21:17:00,
2013-01-17 14:22:00,44.8,7.2,30.26,WSW,254,7.0,11.0,21,0.00,,,0.00,Wunderground v.1.15,2013-01-17 21:22:00,
2013-01-17 14:27:00,44.3,7.8,30.26,WSW,247,7.0,17.0,22,0.00,,,0.00,Wunderground v.1.15,2013-01-17 21:27:00,
2013-01-17 14:33:00,43.9,7.4,30.27,WSW,247,14.0,16.0,22,0.00,,,0.00,Wunderground v.1.15,2013-01-17 21:33:00,
2013-01-17 14:38:00,43.6,7.2,30.27,SW,226,8.0,20.0,22,0.00,,,0.00,Wunderground v.1.15,2013-01-17 21:38:00,
2013-01-17 14:43:00,43.6,7.2,30.27,SW,226,16.0,16.0,22,0.00,,,0.00,Wunderground v.1.15,2013-01-17 21:43:00,
2013-01-17 14:48:00,43.8,7.4,30.26,SW,233,6.0,17.0,22,0.00,,,0.00,Wunderground v.1.15,2013-01-17 21:48:00,
2013-01-17 14:53:00,43.6,7.2,30.26,WSW,257,17.0,17.0,22,0.00,,,0.00,Wunderground v.1.15,2013-01-17 21:53:00,
2013-01-17 14:58:00,43.9,7.4,30.26,WSW,250,6.0,17.0,22,0.00,,,0.00,Wunderground v.1.15,2013-01-17 21:58:00,
2013-01-17 15:03:00,43.8,7.4,30.26,WSW,247,7.0,17.0,22,0.00,,,0.00,Wunderground v.1.15,2013-01-17 22:03:00,
2013-01-17 15:09:00,43.8,7.4,30.26,SW,226,9.0,20.0,22,0.00,,,0.00,Wunderground v.1.15,2013-01-17 22:09:00,
2013-01-17 15:14:00,43.8,7.4,30.26,SW,233,14.0,18.0,22,0.00,,,0.00,Wunderground v.1.15,2013-01-17 22:14:00,
2013-01-17 15:19:00,43.9,6.4,30.27,West,263,22.0,22.0,21,0.00,,,0.00,Wunderground v.1.15,2013-01-17 22:19:00,
2013-01-17 15:24:00,44.2,6.7,30.27,WSW,250,8.0,15.0,21,0.00,,,0.00,Wunderground v.1.15,2013-01-17 22:24:00,
2013-01-17 15:29:00,44.1,6.6,30.27,WSW,247,10.0,15.0,21,0.00,,,0.00,Wunderground v.1.15,2013-01-17 22:29:00,
2013-01-17 15:35:00,43.9,6.4,30.27,SW,226,7.0,15.0,21,0.00,,,0.00,Wunderground v.1.15,2013-01-17 22:35:00,
2013-01-17 15:40:00,43.8,6.3,30.27,West,264,7.0,9.0,21,0.00,,,0.00,Wunderground v.1.15,2013-01-17 22:40:00,
2013-01-17 15:45:00,43.5,6.1,30.27,SW,230,6.0,18.0,21,0.00,,,0.00,Wunderground v.1.15,2013-01-17 22:45:00,
2013-01-17 15:50:00,42.9,7.6,30.27,West,280,13.0,13.0,23,0.00,,,0.00,Wunderground v.1.15,2013-01-17 22:50:00,
2013-01-17 15:55:00,42.8,7.5,30.27,WSW,243,10.0,14.0,23,0.00,,,0.00,Wunderground v.1.15,2013-01-17 22:55:00,
2013-01-17 16:01:00,42.9,7.6,30.27,NW,308,14.0,14.0,23,0.00,,,0.00,Wunderground v.1.15,2013-01-17 23:01:00,
2013-01-17 16:06:00,43.1,7.7,30.27,WSW,241,11.0,15.0,23,0.00,,,0.00,Wunderground v.1.15,2013-01-17 23:06:00,
2013-01-17 16:11:00,43.1,7.7,30.27,SW,234,7.0,13.0,23,0.00,,,0.00,Wunderground v.1.15,2013-01-17 23:11:00,
2013-01-17 16:16:00,43.1,7.7,30.27,West,260,8.0,17.0,23,0.00,,,0.00,Wunderground v.1.15,2013-01-17 23:16:00,
2013-01-17 16:21:00,42.8,7.5,30.30,West,271,6.0,9.0,23,0.00,,,0.00,Wunderground v.1.15,2013-01-17 23:21:00,
2013-01-17 16:26:00,42.5,7.2,30.30,WSW,244,6.0,16.0,23,0.00,,,0.00,Wunderground v.1.15,2013-01-17 23:26:00,
2013-01-17 16:31:00,42.2,7.0,30.30,West,263,10.0,14.0,23,0.00,,,0.00,Wunderground v.1.15,2013-01-17 23:31:00,
2013-01-17 16:36:00,41.8,7.6,30.30,WSW,246,11.0,14.0,24,0.00,,,0.00,Wunderground v.1.15,2013-01-17 23:36:00,
2013-01-17 16:42:00,41.6,7.4,30.30,West,261,9.0,20.0,24,0.00,,,0.00,Wunderground v.1.15,2013-01-17 23:42:00,
2013-01-17 16:47:00,41.5,7.3,30.31,WSW,241,8.0,20.0,24,0.00,,,0.00,Wunderground v.1.15,2013-01-17 23:47:00,
2013-01-17 16:52:00,41.5,6.4,30.31,West,261,8.0,16.0,23,0.00,,,0.00,Wunderground v.1.15,2013-01-17 23:52:00,
2013-01-17 16:57:00,41.5,6.4,30.31,SW,236,13.0,16.0,23,0.00,,,0.00,Wunderground v.1.15,2013-01-17 23:57:00,
2013-01-17 17:02:00,41.5,6.4,30.31,WSW,248,4.0,11.0,23,0.00,,,0.00,Wunderground v.1.15,2013-01-18 00:02:00,
2013-01-17 17:07:00,41.6,6.5,30.31,WSW,243,16.0,16.0,23,0.00,,,0.00,Wunderground v.1.15,2013-01-18 00:07:00,
2013-01-17 17:12:00,41.2,7.1,30.31,WSW,251,9.0,10.0,24,0.00,,,0.00,Wunderground v.1.15,2013-01-18 00:12:00,
2013-01-17 17:18:00,40.8,6.7,30.32,WSW,241,4.0,13.0,24,0.00,,,0.00,Wunderground v.1.15,2013-01-18 00:18:00,
2013-01-17 17:23:00,40.6,6.6,30.32,WSW,251,8.0,9.0,24,0.00,,,0.00,Wunderground v.1.15,2013-01-18 00:23:00,
2013-01-17 17:28:00,40.3,6.3,30.32,WSW,250,7.0,11.0,24,0.00,,,0.00,Wunderground v.1.15,2013-01-18 00:28:00,
2013-01-17 17:33:00,40.5,6.5,30.32,WSW,241,6.0,9.0,24,0.00,,,0.00,Wunderground v.1.15,2013-01-18 00:33:00,
2013-01-17 17:38:00,40.1,6.1,30.32,WSW,248,7.0,14.0,24,0.00,,,0.00,Wunderground v.1.15,2013-01-18 00:38:00,
2013-01-17 17:43:00,39.6,7.5,30.32,West,260,8.0,17.0,26,0.00,,,0.00,Wunderground v.1.15,2013-01-18 00:43:00,
2013-01-17 17:48:00,39.6,7.5,30.33,WSW,244,6.0,17.0,26,0.00,,,0.00,Wunderground v.1.15,2013-01-18 00:48:00,
2013-01-17 17:53:00,39.9,7.7,30.33,WSW,253,9.0,11.0,26,0.00,,,0.00,Wunderground v.1.15,2013-01-18 00:53:00,
2013-01-17 17:58:00,39.9,6.9,30.33,WSW,237,8.0,11.0,25,0.00,,,0.00,Wunderground v.1.15,2013-01-18 00:58:00,
2013-01-17 18:03:00,39.9,6.9,30.32,SSW,192,8.0,8.0,25,0.00,,,0.00,Wunderground v.1.15,2013-01-18 01:03:00,
2013-01-17 18:09:00,40.3,7.2,30.32,WSW,247,8.0,13.0,25,0.00,,,0.00,Wunderground v.1.15,2013-01-18 01:09:00,
2013-01-17 18:14:00,40.3,7.2,30.32,SW,222,2.0,8.0,25,0.00,,,0.00,Wunderground v.1.15,2013-01-18 01:14:00,
2013-01-17 18:19:00,39.9,6.9,30.32,SSW,212,6.0,8.0,25,0.00,,,0.00,Wunderground v.1.15,2013-01-18 01:19:00,
2013-01-17 18:24:00,39.9,6.0,30.32,SSW,213,7.0,10.0,24,0.00,,,0.00,Wunderground v.1.15,2013-01-18 01:24:00,
2013-01-17 18:29:00,40.3,6.3,30.32,WSW,240,10.0,11.0,24,0.00,,,0.00,Wunderground v.1.15,2013-01-18 01:29:00,
2013-01-17 18:34:00,40.6,6.6,30.31,SW,232,7.0,16.0,24,0.00,,,0.00,Wunderground v.1.15,2013-01-18 01:34:00,
2013-01-17 18:39:00,40.3,6.3,30.31,SSW,209,6.0,16.0,24,0.00,,,0.00,Wunderground v.1.15,2013-01-18 01:39:00,
2013-01-17 18:44:00,40.6,6.6,30.31,South,181,6.0,13.0,24,0.00,,,0.00,Wunderground v.1.15,2013-01-18 01:44:00,
2013-01-17 18:50:00,40.6,5.6,30.31,SSW,209,8.0,8.0,23,0.00,,,0.00,Wunderground v.1.15,2013-01-18 01:50:00,
2013-01-17 18:55:00,40.5,6.5,30.31,WSW,247,7.0,15.0,24,0.00,,,0.00,Wunderground v.1.15,2013-01-18 01:55:00,
2013-01-17 19:00:00,40.6,5.6,30.31,SSW,203,13.0,13.0,23,0.00,,,0.00,Wunderground v.1.15,2013-01-18 02:00:00,
2013-01-17 19:05:00,40.6,5.6,30.31,South,189,4.0,13.0,23,0.00,,,0.00,Wunderground v.1.15,2013-01-18 02:05:00,
2013-01-17 19:10:00,40.6,5.6,30.31,WSW,240,11.0,11.0,23,0.00,,,0.00,Wunderground v.1.15,2013-01-18 02:10:00,
2013-01-17 19:15:00,40.1,6.1,30.31,WSW,243,8.0,14.0,24,0.00,,,0.00,Wunderground v.1.15,2013-01-18 02:15:00,
2013-01-17 19:21:00,39.9,6.0,30.31,SW,216,7.0,13.0,24,0.00,,,0.00,Wunderground v.1.15,2013-01-18 02:21:00,
2013-01-17 19:26:00,39.6,5.7,30.31,WSW,248,10.0,15.0,24,0.00,,,0.00,Wunderground v.1.15,2013-01-18 02:26:00,
2013-01-17 19:31:00,39.3,6.3,30.31,WSW,250,4.0,9.0,25,0.00,,,0.00,Wunderground v.1.15,2013-01-18 02:31:00,
2013-01-17 19:36:00,39.5,5.6,30.31,SW,222,8.0,18.0,24,0.00,,,0.00,Wunderground v.1.15,2013-01-18 02:36:00,
2013-01-17 19:41:00,39.8,5.9,30.31,West,270,4.0,10.0,24,0.00,,,0.00,Wunderground v.1.15,2013-01-18 02:41:00,
2013-01-17 19:46:00,39.6,5.7,30.31,WSW,239,9.0,17.0,24,0.00,,,0.00,Wunderground v.1.15,2013-01-18 02:46:00,
2013-01-17 19:51:00,39.5,5.6,30.31,WSW,239,6.0,17.0,24,0.00,,,0.00,Wunderground v.1.15,2013-01-18 02:51:00,
2013-01-17 19:56:00,39.6,5.7,30.31,SW,232,6.0,17.0,24,0.00,,,0.00,Wunderground v.1.15,2013-01-18 02:56:00,
2013-01-17 20:01:00,39.3,6.3,30.31,WSW,257,14.0,14.0,25,0.00,,,0.00,Wunderground v.1.15,2013-01-18 03:01:00,
2013-01-17 20:06:00,39.2,6.3,30.31,WSW,241,4.0,14.0,25,0.00,,,0.00,Wunderground v.1.15,2013-01-18 03:06:00,
2013-01-17 20:11:00,39.6,5.7,30.31,SW,230,6.0,18.0,24,0.00,,,0.00,Wunderground v.1.15,2013-01-18 03:11:00,
2013-01-17 20:16:00,39.8,5.9,30.27,WSW,240,7.0,18.0,24,0.00,,,0.00,Wunderground v.1.15,2013-01-18 03:16:00,
2013-01-17 20:22:00,39.5,5.6,30.27,West,261,8.0,9.0,24,0.00,,,0.00,Wunderground v.1.15,2013-01-18 03:22:00,
2013-01-17 20:27:00,38.6,4.9,30.27,West,264,13.0,13.0,24,0.00,,,0.00,Wunderground v.1.15,2013-01-18 03:27:00,
2013-01-17 20:32:00,38.3,5.5,30.28,WSW,247,6.0,9.0,25,0.00,,,0.00,Wunderground v.1.15,2013-01-18 03:32:00,
2013-01-17 20:37:00,38.3,5.5,30.28,WSW,243,10.0,10.0,25,0.00,,,0.00,Wunderground v.1.15,2013-01-18 03:37:00,
2013-01-17 20:42:00,38.5,5.7,30.28,SW,230,8.0,8.0,25,0.00,,,0.00,Wunderground v.1.15,2013-01-18 03:42:00,
2013-01-17 20:47:00,39.3,6.3,30.26,West,267,10.0,11.0,25,0.00,,,0.00,Wunderground v.1.15,2013-01-18 03:47:00,
2013-01-17 20:52:00,39.9,6.9,30.26,WSW,248,0.0,7.0,25,0.00,,,0.00,Wunderground v.1.15,2013-01-18 03:52:00,
2013-01-17 20:58:00,39.8,6.8,30.26,SW,215,4.0,14.0,25,0.00,,,0.00,Wunderground v.1.15,2013-01-18 03:58:00,
2013-01-17 21:03:00,39.5,5.6,30.26,West,260,8.0,13.0,24,0.00,,,0.00,Wunderground v.1.15,2013-01-18 04:03:00,
2013-01-17 21:08:00,39.6,4.8,30.26,WSW,239,2.0,16.0,23,0.00,,,0.00,Wunderground v.1.15,2013-01-18 04:08:00,
2013-01-17 21:13:00,39.6,5.7,30.26,WSW,253,7.0,9.0,24,0.00,,,0.00,Wunderground v.1.15,2013-01-18 04:13:00,
2013-01-17 21:18:00,40.1,5.2,30.20,WSW,239,13.0,14.0,23,0.00,,,0.00,Wunderground v.1.15,2013-01-18 04:18:00,
2013-01-17 21:23:00,40.1,5.2,30.20,WSW,250,6.0,16.0,23,0.00,,,0.00,Wunderground v.1.15,2013-01-18 04:23:00,
2013-01-17 21:28:00,39.6,4.8,30.20,WSW,243,7.0,16.0,23,0.00,,,0.00,Wunderground v.1.15,2013-01-18 04:28:00,
2013-01-17 21:34:00,39.9,4.1,30.20,WSW,258,13.0,15.0,22,0.00,,,0.00,Wunderground v.1.15,2013-01-18 04:34:00,
2013-01-17 21:39:00,40.5,4.6,30.20,WSW,246,8.0,15.0,22,0.00,,,0.00,Wunderground v.1.15,2013-01-18 04:39:00,
2013-01-17 21:44:00,40.6,4.7,30.20,WSW,247,6.0,9.0,22,0.00,,,0.00,Wunderground v.1.15,2013-01-18 04:44:00,
2013-01-17 21:49:00,41.2,4.1,30.18,WSW,247,9.0,17.0,21,0.00,,,0.00,Wunderground v.1.15,2013-01-18 04:49:00,
2013-01-17 21:54:00,41.3,4.2,30.18,WSW,251,7.0,17.0,21,0.00,,,0.00,Wunderground v.1.15,2013-01-18 04:54:00,
2013-01-17 21:59:00,41.1,4.1,30.18,SSW,208,11.0,17.0,21,0.00,,,0.00,Wunderground v.1.15,2013-01-18 04:59:00,
2013-01-17 22:00:00,41.1,5.1,30.18,West,270,6.0,8.0,22,0.00,,,0.00,Wunderground v.1.15,2013-01-18 05:00:00,
2013-01-17 22:03:00,40.8,3.8,30.18,WSW,254,7.0,11.0,21,0.00,,,0.00,Wunderground v.1.15,2013-01-18 05:03:00,
2013-01-17 22:04:00,40.9,3.9,30.18,WSW,246,13.0,14.0,21,0.00,,,0.00,Wunderground v.1.15,2013-01-18 05:04:00,
2013-01-17 22:09:00,41.9,3.7,30.18,South,181,11.0,16.0,20,0.00,,,0.00,Wunderground v.1.15,2013-01-18 05:09:00,
2013-01-17 22:14:00,41.9,3.7,30.18,WSW,239,10.0,15.0,20,0.00,,,0.00,Wunderground v.1.15,2013-01-18 05:14:00,
2013-01-17 22:19:00,41.9,3.7,30.13,SSW,196,9.0,17.0,20,0.00,,,0.00,Wunderground v.1.15,2013-01-18 05:19:00,
2013-01-17 22:24:00,42.1,2.7,30.13,WSW,241,8.0,20.0,19,0.00,,,0.00,Wunderground v.1.15,2013-01-18 05:24:00,
2013-01-17 22:29:00,41.8,3.6,30.13,WSW,239,2.0,20.0,20,0.00,,,0.00,Wunderground v.1.15,2013-01-18 05:29:00,
2013-01-17 22:34:00,41.2,3.1,30.13,West,267,6.0,22.0,20,0.00,,,0.00,Wunderground v.1.15,2013-01-18 05:34:00,
2013-01-17 22:40:00,41.2,3.1,30.13,WSW,248,8.0,9.0,20,0.00,,,0.00,Wunderground v.1.15,2013-01-18 05:40:00,
2013-01-17 22:45:00,40.3,3.4,30.13,SSW,210,4.0,11.0,21,0.00,,,0.00,Wunderground v.1.15,2013-01-18 05:45:00,
2013-01-17 22:50:00,39.9,3.1,30.13,SW,226,6.0,7.0,21,0.00,,,0.00,Wunderground v.1.15,2013-01-18 05:50:00,
2013-01-17 22:55:00,40.2,3.3,30.13,SSW,206,10.0,16.0,21,0.00,,,0.00,Wunderground v.1.15,2013-01-18 05:55:00,
2013-01-17 23:00:00,39.9,3.1,30.13,WSW,248,9.0,9.0,21,0.00,,,0.00,Wunderground v.1.15,2013-01-18 06:00:00,
2013-01-17 23:05:00,39.9,3.1,30.13,SSW,205,4.0,18.0,21,0.00,,,0.00,Wunderground v.1.15,2013-01-18 06:05:00,
2013-01-17 23:11:00,40.2,3.3,30.13,WSW,254,6.0,9.0,21,0.00,,,0.00,Wunderground v.1.15,2013-01-18 06:11:00,
2013-01-17 23:16:00,40.8,2.7,30.13,SSW,198,6.0,20.0,20,0.00,,,0.00,Wunderground v.1.15,2013-01-18 06:16:00,
2013-01-17 23:21:00,40.9,2.8,30.11,WSW,248,17.0,17.0,20,0.00,,,0.00,Wunderground v.1.15,2013-01-18 06:21:00,
2013-01-17 23:26:00,41.1,3.0,30.11,SW,234,7.0,17.0,20,0.00,,,0.00,Wunderground v.1.15,2013-01-18 06:26:00,
2013-01-17 23:31:00,40.9,2.8,30.11,SW,233,6.0,9.0,20,0.00,,,0.00,Wunderground v.1.15,2013-01-18 06:31:00,
2013-01-17 23:36:00,40.8,2.7,30.11,WSW,240,10.0,17.0,20,0.00,,,0.00,Wunderground v.1.15,2013-01-18 06:36:00,
2013-01-17 23:42:00,40.6,2.6,30.11,WSW,251,4.0,14.0,20,0.00,,,0.00,Wunderground v.1.15,2013-01-18 06:42:00,
2013-01-17 23:47:00,40.8,2.7,30.11,WSW,258,17.0,17.0,20,0.00,,,0.00,Wunderground v.1.15,2013-01-18 06:47:00,
2013-01-17 23:52:00,40.8,2.7,30.11,SSW,206,7.0,14.0,20,0.00,,,0.00,Wunderground v.1.15,2013-01-18 06:52:00,
2013-01-17 23:57:00,40.6,3.6,30.11,West,278,4.0,16.0,21,0.00,,,0.00,Wunderground v.1.15,2013-01-18 06:57:00,